Home   Weather   Bottrop   Past weeks

Flag for Germany Past Weather in Bottrop, North Rhine-Westphalia, Germany — Yesterday and Last 2 Weeks

Now
50 °F

Mostly cloudy.


Feels Like: 43 °F
Forecast: 43 / 47 °F
Wind: 24 mph from West

Location: Duesseldorf

Current Time: Dec 11, 2016 at 5:28:49 am

Latest Report: Dec 11, 2016 at 4:50 am


Visibility: N/A

Pressure: 29.98 "Hg

Humidity: 88%

Dew Point: 46 °F

Location of BottropLocation

Past Weather in Bottrop — Graph

°F

Bottrop Temperature Yesterday

Maximum temperature yesterday: 52 °F (at 12:50 pm)
Minimum temperature yesterday: 41 °F (at 8:20 am)
Average temperature yesterday: 46 °F

High & Low Weather Summary for the Past Weeks

 TemperatureHumidityPressure
High52 °F (Dec 9, 1:50 pm)100% (Nov 26, 8:50 pm)30.60 "Hg (Nov 26, 8:50 pm)
Low18 °F (Dec 4, 7:50 am)45% (Nov 29, 2:50 pm)29.98 "Hg (Dec 11, 2:50 am)
Average37 °F84%30.33 "Hg
* Reported Nov 26 4:20 am — Dec 11 4:20 am, Bottrop, Weather by CustomWeather, © 2016

Note: Actual official high and low records may vary slightly from our data, if they occured in-between our weather recording intervals... More about our weather records

Advertising

Bottrop Weather History for the Previous 24 Hours

Scroll right to see more
 ConditionsComfort  
Time TempWeatherWind HumidityBarometerVisibility
4:20 am
Sun, Dec 11
50 °FOvercast.25 mph88%29.98 "HgN/A
3:50 am50 °FLight rain. Mostly cloudy.23 mph88%29.98 "HgN/A
3:20 am50 °FLight rain. Mostly cloudy.18 mph88%29.98 "HgN/A
2:50 am50 °FLight rain. Mostly cloudy.18 mph88%29.98 "HgN/A
2:20 am50 °FLight rain. Partly cloudy.20 mph82%30.01 "HgN/A
1:50 am50 °FPartly cloudy.16 mph82%30.01 "HgN/A
1:20 am50 °FMostly cloudy.14 mph88%30.04 "HgN/A
12:50 am50 °FMostly cloudy.12 mph88%30.04 "HgN/A
12:20 am50 °FMostly cloudy.14 mph94%30.07 "HgN/A
11:50 pm
Sat, Dec 10
50 °FPassing clouds.12 mph94%30.07 "HgN/A
11:20 pm50 °FOvercast.14 mph94%30.09 "HgN/A
10:50 pm50 °FLow clouds.12 mph94%30.09 "HgN/A
10:20 pm48 °FLow clouds.9 mph100%30.09 "Hg6 mi
9:50 pm48 °FDrizzle. Overcast.6 mph100%30.12 "HgN/A
9:20 pm50 °FOvercast.8 mph88%30.12 "HgN/A
8:50 pm48 °FLow clouds.9 mph100%30.12 "Hg6 mi
8:20 pm48 °FLow clouds.7 mph100%30.15 "Hg4 mi
7:50 pm48 °FFog.8 mph100%30.15 "Hg3 mi
7:20 pm48 °FDrizzle. Low clouds.7 mph94%30.15 "Hg3 mi
6:50 pm48 °FDrizzle. Low clouds.6 mph94%30.18 "Hg3 mi
6:20 pm48 °FDrizzle. Low clouds.7 mph94%30.18 "HgN/A
5:50 pm48 °FDrizzle. Low clouds.7 mph94%30.18 "Hg2 mi
5:20 pm48 °FDrizzle. Overcast.6 mph94%30.21 "HgN/A
4:50 pm48 °FDrizzle. Overcast.6 mph94%30.21 "Hg5 mi
4:20 pm48 °FPartly sunny.6 mph87%30.21 "Hg6 mi
3:50 pm48 °FPartly sunny.7 mph87%30.21 "Hg6 mi
3:20 pm48 °FDrizzle. Partly sunny.10 mph87%30.21 "Hg6 mi
2:50 pm50 °FPartly sunny.10 mph82%30.21 "HgN/A
2:20 pm50 °FPartly sunny.9 mph76%30.21 "HgN/A
1:50 pm50 °FPartly sunny.10 mph76%30.21 "HgN/A
1:20 pm50 °FPassing clouds.13 mph76%30.24 "HgN/A
12:50 pm52 °FSunny.14 mph72%30.24 "Hg10 mi
12:20 pm48 °FSunny.9 mph76%30.24 "Hg10 mi
11:50 am48 °FPassing clouds.7 mph76%30.24 "HgN/A
11:20 am46 °FSunny.7 mph82%30.24 "Hg10 mi
10:50 am46 °FSunny.7 mph82%30.24 "Hg10 mi
10:20 am45 °FPassing clouds.8 mph87%30.24 "HgN/A
9:50 am43 °FSunny.9 mph87%30.24 "Hg10 mi
9:20 am41 °FSunny.8 mph93%30.24 "Hg10 mi
8:50 am41 °FSunny.9 mph93%30.24 "Hg10 mi
8:20 am41 °FClear.8 mph87%30.24 "Hg10 mi
7:50 am43 °FClear.6 mph87%30.24 "Hg10 mi
7:20 am43 °FClear.8 mph87%30.24 "Hg10 mi
6:50 am43 °FClear.9 mph87%30.24 "Hg10 mi
6:20 am43 °FPassing clouds.6 mph87%30.24 "HgN/A
5:50 am43 °FClear.9 mph87%30.24 "Hg10 mi
5:20 am43 °FClear.10 mph87%30.24 "Hg10 mi
Weather by CustomWeather, © 2016

See weather overviewHow to use our weather pages